This demonstration page uses our WeatherBlox Daily Observations layout. Learn more.

Left ArrowRight Arrow

38.20091, -84.87328

Hourly Observations for January 12, 2015

Temp ( °F °C ) Dew Point ( °F °C ) Humidity (%) Winds ( mph kmh ) Pressure ( in mb ) Visibility ( mi km ) Precip ( " mm )
12:45 am 00:45 Cloudy with Light Rain 35 1.7 32 0 89 89 E 5 7 30.30 1026 5 8 0.02 0.51
12:53 am 00:53 Cloudy with Light Rain 35 1.7 32 0 89 89 E 3 6 30.26 1025 5 8 0.02 0.51
1:04 am 01:04 Cloudy with Light Rain 35 1.7 32 0 89 89 E 3 6 30.30 1026 5 8 0.01 0.25
1:53 am 01:53 Cloudy with Mist and Fog 35 1.7 33 0.6 93 93 E 3 6 30.25 1024 5 8 0.01 0.25
2:01 am 02:01 Cloudy with Mist and Fog 35 1.7 33 0.6 93 93 Calm 30.30 1026 5 8 0.00 0.00
2:13 am 02:13 Cloudy with Mist and Fog 35 1.7 33 0.6 93 93 Calm 30.30 1026 4 6 0.00 0.00
2:53 am 02:53 Cloudy with Light Rain 35 1.7 33 0.6 93 93 Calm 30.25 1025 3 5 0.01 0.25
3:04 am 03:04 Cloudy with Light Rain 35 1.7 33 0.6 93 93 SE 3 6 30.30 1026 2 3 0.01 0.25
3:11 am 03:11 Cloudy with Light Rain 35 1.7 33 0.6 93 93 SE 3 6 30.30 1026 2 3 0.02 0.51
3:53 am 03:53 Cloudy with Mist and Fog 35 1.7 34 1.1 96 96 SE 3 6 30.23 1024 3 4 0.02 0.51
4:09 am 04:09 Cloudy with Mist and Fog 36 2.2 34 1.1 93 93 Calm 30.27 1025 2 3 0.00 0.00
4:21 am 04:21 Cloudy with Mist and Fog 36 2.2 34 1.1 93 93 Calm 30.27 1025 2 3 0.00 0.00
4:53 am 04:53 Cloudy with Mist and Fog 36 2.2 35 1.7 97 97 Calm 30.22 1023 3 4 0.00 0.00
5:11 am 05:11 Cloudy with Mist and Fog 36 2.2 35 1.7 97 97 Calm 30.27 1025 2 3 0.00 0.00
5:23 am 05:23 Cloudy with Mist and Fog 36 2.2 35 1.7 97 97 Calm 30.27 1025 2 2 0.00 0.00
5:53 am 05:53 Cloudy with Light Rain 36 2.2 35 1.7 97 97 Calm 30.23 1024 1 2 0.00 0.03
6:17 am 06:17 Cloudy with Mist and Fog 36 2.2 35 1.7 97 97 Calm 30.27 1025 2 3 0.00 0.03
6:53 am 06:53 Cloudy with Mist and Fog 36 2.2 35 1.7 97 97 Calm 30.22 1023 2 3 0.00 0.03
7:13 am 07:13 Cloudy with Mist and Fog 36 2.2 35 1.7 97 97 Calm 30.27 1025 3 5 0.00 0.00
7:25 am 07:25 Cloudy with Mist and Fog 36 2.2 35 1.7 97 97 Calm 30.21 1023 3 4 0.00 0.00
7:39 am 07:39 Cloudy with Mist and Fog 36 2.2 35 1.7 97 97 Calm 30.21 1023 2 3 0.00 0.00
7:53 am 07:53 Cloudy with Light Rain 36 2.2 35 1.7 97 97 Calm 30.21 1023 2 2 0.01 0.25
7:59 am 07:59 Cloudy with Light Rain 36 2.2 35 1.7 97 97 Calm 30.21 1023 2 2 0.00 0.03
8:40 am 08:40 Cloudy with Light Rain 36 2.2 35 1.7 97 97 NW 3 6 30.27 1025 1 2 0.00 0.03
8:53 am 08:53 Cloudy with Mist and Fog 36 2.2 35 1.7 97 97 Calm 30.24 1024 1 2 0.00 0.03
9:03 am 09:03 Cloudy with Mist and Fog 37 2.8 35 1.7 93 93 Calm 30.27 1025 1 2 0.00 0.00
9:36 am 09:36 Cloudy with Light Rain 37 2.8 36 2.2 96 96 Calm 30.27 1025 1 2 0.02 0.51
9:53 am 09:53 Cloudy with Light Rain 37 2.8 36 2.2 96 96 Calm 30.24 1024 1 2 0.03 0.76
10:36 am 10:36 Cloudy with Light Rain 38 3.3 36 2.2 93 93 NE 3 6 30.24 1024 1 2 0.06 1.52
10:39 am 10:39 Cloudy with Light Rain 38 3.3 36 2.2 93 93 NNE 3 6 30.24 1024 2 2 0.06 1.52
10:47 am 10:47 Cloudy with Light Rain 37 3 36 2 93 93 NNE 3 6 30.24 1024 2 3 0.07 1.78
10:53 am 10:53 Cloudy with Light Rain 38 3.3 36 2.2 93 93 NNE 3 6 30.24 1024 2 3 0.07 1.78
11:15 am 11:15 Cloudy with Light Rain 38 3.3 36 2.2 93 93 N 5 7 30.24 1024 3 4 0.00 0.03
11:53 am 11:53 Cloudy with Light Rain 38 3.3 36 2.2 93 93 N 6 9 30.23 1024 3 5 0.03 0.76
12:11 pm 12:11 Cloudy with Mist and Fog 38 3.3 36 2.2 93 93 N 8 13 30.27 1025 6 10 0.00 0.03
12:18 pm 12:18 Cloudy with Light Rain 38 3.3 36 2.2 93 93 NNW 7 11 30.27 1025 6 10 0.00 0.03
12:53 pm 12:53 Cloudy with Light Rain 38 3.3 36 2.2 93 93 N 7 11 30.24 1024 3 5 0.00 0.03
1:53 pm 13:53 Cloudy with Light Rain 38 3.3 35 1.7 89 89 N 7 11 30.23 1024 5 8 0.02 0.51
2:53 pm 14:53 Cloudy 38 3.3 35 1.7 89 89 N 9 15 30.24 1024 7 11 0.00 0.03
3:53 pm 15:53 Cloudy 37 2.8 34 1.1 89 89 N 9 15 30.27 1025 7 11 0.00 0.00
4:53 pm 16:53 Cloudy 36 2.2 33 0.6 89 89 N 10 17 30.30 1026 10 16 0.00 0.00
5:02 pm 17:02 Cloudy 36 2.2 33 0.6 89 89 N 10 17 30.36 1028 10 16 0.00 0.00
5:16 pm 17:16 Cloudy 36 2.2 33 0.6 89 89 N 10 17 30.36 1028 10 16 0.00 0.00
5:53 pm 17:53 Cloudy 35 1.7 31 -0.6 85 85 N 8 13 30.33 1027 10 16 0.00 0.00
6:04 pm 18:04 Cloudy 35 1.7 31 -0.6 85 85 N 9 15 30.39 1029 10 16 0.00 0.00
6:38 pm 18:38 Cloudy with Light Snow 34 1.1 30 -1.1 85 85 N 10 17 30.39 1029 7 11 0.00 0.03
6:53 pm 18:53 Cloudy 34 1.1 30 -1.1 85 85 N 12 19 30.36 1028 8 13 0.00 0.03
7:18 pm 19:18 Cloudy with Mist and Fog 33 0.6 29 -1.7 85 85 N 8 13 30.42 1030 6 10 0.00 0.03
7:39 pm 19:39 Cloudy 33 0.6 29 -1.7 85 85 N 8 13 30.42 1030 8 13 0.00 0.03
7:49 pm 19:49 Cloudy 34 1 28 -2 81 81 N 10 17 30.42 1030 8 13 0.00 0.03
7:53 pm 19:53 Cloudy 33 0.6 28 -2.2 82 82 NNE 10 17 30.39 1029 8 13 0.00 0.03
8:34 pm 20:34 Cloudy 33 0.6 28 -2.2 82 82 N 10 17 30.45 1031 7 11 0.00 0.00
8:53 pm 20:53 Cloudy with Haze 32 0 27 -2.8 82 82 N 15 24 30.41 1030 6 10 0.00 0.00
9:12 pm 21:12 Cloudy 32 0 26 -3.3 79 79 N 13 20 30.45 1031 7 11 0.00 0.00
9:53 pm 21:53 Cloudy 31 -0.6 26 -3.3 82 82 N 10 17 30.44 1031 7 11 0.00 0.00
10:53 pm 22:53 Cloudy 31 -0.6 24 -4.4 76 76 N 10 17 30.45 1031 8 13 0.00 0.00
11:53 pm 23:53 Cloudy 30 -1.1 23 -5 75 75 N 9 15 30.45 1031 9 14 0.00 0.00

Powered by AerisWeather